Tracking 29089 objects as of 12-Jul-2024
HD Live streaming from Space Station
objects crossing your sky now

ATLAS 5 CENTAUR DEB

Track ATLAS 5 CENTAUR DEB now!


NORAD ID: 49343
Int'l Code: 2018-079EU
Perigee: 9,232.7 km
Apogee: 36,272.5 km
Inclination: 11.4 °
Period: 824.4 minutes
Semi major axis: 29123 km
RCS: Unknown
Launch date: October 17, 2018
Source: United States (US)
Launch site: AIR FORCE EASTERN TEST RANGE (AFETR)

Note: This is SATELLITE DEBRIS
Your satellite tracking list
Your tracking list is empty




NASA's NSSDC Master Catalog

Two Line Element Set (TLE):
1 49343U 18079EU  24193.30988144 -.00000098  00000-0  00000+0 0  9991
2 49343  11.3654 116.1500 4642244 155.8893 235.4713  1.74676493 18296
Source of the keplerian elements: AFSPC